TimeEDT,TemperatureF,Dew PointF,Humidity,Sea Level PressureIn,VisibilityMPH,Wind Direction,Wind SpeedMPH,Gust SpeedMPH,PrecipitationIn,Events,Conditions,WindDirDegrees,DateUTC
12:15 AM,64.8,53.2,66,30.19,10.0,North,3.5,-,N/A,,Clear,10,2013-09-06 04:15:00
12:35 AM,63.1,53.1,70,30.20,10.0,Calm,Calm,-,N/A,,Clear,0,2013-09-06 04:35:00
12:55 AM,59.9,53.6,80,30.21,10.0,Calm,Calm,-,N/A,,Clear,0,2013-09-06 04:55:00
1:15 AM,59.0,53.6,82,30.21,10.0,Calm,Calm,-,N/A,,Scattered Clouds,0,2013-09-06 05:15:00
1:35 AM,58.6,53.2,82,30.21,10.0,Calm,Calm,-,N/A,,Scattered Clouds,0,2013-09-06 05:35:00
1:55 AM,57.9,53.2,84,30.22,10.0,Calm,Calm,-,N/A,,Scattered Clouds,0,2013-09-06 05:55:00
2:15 AM,59.5,53.2,80,30.21,10.0,Calm,Calm,-,N/A,,Scattered Clouds,0,2013-09-06 06:15:00
2:35 AM,57.9,52.7,83,30.21,10.0,NE,3.5,-,N/A,,Scattered Clouds,40,2013-09-06 06:35:00
2:55 AM,59.4,53.6,81,30.21,10.0,North,4.6,-,N/A,,Clear,360,2013-09-06 06:55:00
3:15 AM,59.4,53.6,81,30.21,10.0,North,4.6,-,N/A,,Clear,350,2013-09-06 07:15:00
3:35 AM,58.3,52.9,82,30.22,10.0,Calm,Calm,-,N/A,,Clear,0,2013-09-06 07:35:00
3:55 AM,55.8,51.8,87,30.22,10.0,Calm,Calm,-,N/A,,Clear,0,2013-09-06 07:55:00
4:15 AM,54.9,51.4,88,30.22,10.0,Calm,Calm,-,N/A,,Clear,0,2013-09-06 08:15:00
4:35 AM,54.9,51.6,89,30.22,10.0,Calm,Calm,-,N/A,,Clear,0,2013-09-06 08:35:00
4:55 AM,55.4,51.1,85,30.23,10.0,Calm,Calm,-,N/A,,Clear,0,2013-09-06 08:55:00
5:15 AM,54.3,50.7,88,30.24,10.0,Calm,Calm,-,N/A,,Clear,0,2013-09-06 09:15:00
5:35 AM,53.4,50.2,89,30.23,10.0,Calm,Calm,-,N/A,,Clear,0,2013-09-06 09:35:00
5:55 AM,51.8,49.3,91,30.24,7.0,Calm,Calm,-,N/A,,Clear,0,2013-09-06 09:55:00
6:15 AM,51.4,49.1,92,30.25,10.0,Calm,Calm,-,N/A,,Clear,0,2013-09-06 10:15:00
6:35 AM,52.0,48.6,88,30.25,10.0,Calm,Calm,-,N/A,,Clear,0,2013-09-06 10:35:00
6:55 AM,52.2,49.3,90,30.26,10.0,Calm,Calm,-,N/A,,Clear,0,2013-09-06 10:55:00
7:15 AM,51.8,48.7,89,30.27,10.0,North,3.5,-,N/A,,Clear,10,2013-09-06 11:15:00
7:35 AM,55.4,50.0,82,30.28,10.0,North,3.5,-,N/A,,Clear,10,2013-09-06 11:35:00
7:55 AM,56.3,50.0,79,30.28,10.0,North,3.5,-,N/A,,Clear,10,2013-09-06 11:55:00
8:15 AM,56.7,50.4,79,30.29,10.0,NE,3.5,-,N/A,,Clear,40,2013-09-06 12:15:00
8:35 AM,57.2,50.7,79,30.28,10.0,NE,4.6,-,N/A,,Clear,50,2013-09-06 12:35:00
8:55 AM,58.1,49.5,73,30.29,10.0,NE,4.6,-,N/A,,Clear,50,2013-09-06 12:55:00
9:15 AM,59.4,48.7,68,30.29,10.0,North,4.6,-,N/A,,Clear,10,2013-09-06 13:15:00
9:35 AM,60.1,48.9,67,30.29,10.0,NE,4.6,-,N/A,,Clear,40,2013-09-06 13:35:00
9:55 AM,60.8,49.3,66,30.29,10.0,NNE,5.8,-,N/A,,Clear,30,2013-09-06 13:55:00
10:15 AM,62.1,50.4,65,30.29,10.0,NNE,3.5,-,N/A,,Clear,30,2013-09-06 14:15:00
10:35 AM,62.8,49.3,61,30.28,10.0,ENE,3.5,-,N/A,,Clear,70,2013-09-06 14:35:00
10:55 AM,63.5,49.1,59,30.29,10.0,Calm,Calm,-,N/A,,Clear,0,2013-09-06 14:55:00
11:15 AM,64.8,48.4,55,30.29,10.0,Calm,Calm,-,N/A,,Clear,0,2013-09-06 15:15:00
11:35 AM,65.7,48.9,55,30.28,10.0,Calm,Calm,-,N/A,,Clear,0,2013-09-06 15:35:00
11:55 AM,66.2,49.5,55,30.28,10.0,Calm,Calm,-,N/A,,Clear,0,2013-09-06 15:55:00
12:15 PM,66.9,49.6,54,30.27,10.0,Calm,Calm,-,N/A,,Clear,0,2013-09-06 16:15:00
12:35 PM,67.8,50.7,54,30.27,10.0,Calm,Calm,-,N/A,,Clear,0,2013-09-06 16:35:00
12:55 PM,69.1,50.9,52,30.27,10.0,Calm,Calm,-,N/A,,Scattered Clouds,0,2013-09-06 16:55:00
1:15 PM,69.3,45.5,42,30.26,10.0,Calm,Calm,-,N/A,,Mostly Cloudy,0,2013-09-06 17:15:00
1:35 PM,70.0,48.4,46,30.25,10.0,Calm,Calm,-,N/A,,Scattered Clouds,0,2013-09-06 17:35:00
1:55 PM,70.7,49.3,47,30.25,10.0,North,4.6,-,N/A,,Clear,10,2013-09-06 17:55:00
2:15 PM,71.4,49.8,46,30.24,10.0,NNE,3.5,-,N/A,,Clear,30,2013-09-06 18:15:00
2:35 PM,71.6,48.0,43,30.23,10.0,North,4.6,-,N/A,,Clear,350,2013-09-06 18:35:00
2:55 PM,72.5,48.9,43,30.22,10.0,ENE,5.8,-,N/A,,Clear,70,2013-09-06 18:55:00
3:15 PM,72.5,49.5,44,30.21,10.0,NE,4.6,-,N/A,,Clear,50,2013-09-06 19:15:00
3:35 PM,72.7,48.6,42,30.21,10.0,Calm,Calm,-,N/A,,Clear,0,2013-09-06 19:35:00
3:55 PM,72.5,48.0,42,30.20,10.0,Calm,Calm,-,N/A,,Clear,0,2013-09-06 19:55:00
4:15 PM,72.3,47.3,41,30.19,10.0,Calm,Calm,-,N/A,,Clear,0,2013-09-06 20:15:00
4:35 PM,72.9,47.7,41,30.19,10.0,Calm,Calm,-,N/A,,Clear,0,2013-09-06 20:35:00
4:55 PM,72.5,47.5,41,30.19,10.0,ESE,4.6,-,N/A,,Clear,110,2013-09-06 20:55:00
5:15 PM,72.5,46.8,40,30.18,10.0,ENE,4.6,-,N/A,,Clear,70,2013-09-06 21:15:00
5:35 PM,72.5,47.1,40,30.18,10.0,Calm,Calm,-,N/A,,Clear,0,2013-09-06 21:35:00
5:55 PM,72.5,46.9,40,30.18,10.0,East,4.6,-,N/A,,Clear,80,2013-09-06 21:55:00
6:15 PM,72.1,47.1,41,30.18,10.0,Calm,Calm,-,N/A,,Clear,0,2013-09-06 22:15:00
6:35 PM,71.8,47.7,42,30.18,10.0,Calm,Calm,-,N/A,,Clear,0,2013-09-06 22:35:00
6:55 PM,71.2,47.3,42,30.17,10.0,Calm,Calm,-,N/A,,Clear,0,2013-09-06 22:55:00
7:15 PM,70.9,46.8,42,30.17,10.0,Calm,Calm,-,N/A,,Clear,0,2013-09-06 23:15:00
7:35 PM,66.7,52.0,59,30.18,10.0,SSE,4.6,-,N/A,,Clear,160,2013-09-06 23:35:00
7:55 PM,66.2,52.3,61,30.18,10.0,SE,3.5,-,N/A,,Clear,130,2013-09-06 23:55:00
8:15 PM,64.2,52.7,66,30.18,10.0,Calm,Calm,-,N/A,,Clear,0,2013-09-07 00:15:00
8:35 PM,62.1,53.1,72,30.18,10.0,SW,3.5,-,N/A,,Clear,220,2013-09-07 00:35:00
8:55 PM,61.0,52.9,75,30.19,10.0,Calm,Calm,-,N/A,,Clear,0,2013-09-07 00:55:00
9:15 PM,59.5,52.9,79,30.18,10.0,Calm,Calm,-,N/A,,Clear,0,2013-09-07 01:15:00
9:35 PM,59.2,52.9,80,30.19,10.0,Calm,Calm,-,N/A,,Clear,0,2013-09-07 01:35:00
9:55 PM,58.1,52.5,82,30.20,10.0,Calm,Calm,-,N/A,,Clear,0,2013-09-07 01:55:00
10:15 PM,56.7,52.9,87,30.19,10.0,Calm,Calm,-,N/A,,Clear,0,2013-09-07 02:15:00
10:35 PM,57.6,53.2,85,30.20,10.0,Calm,Calm,-,N/A,,Clear,0,2013-09-07 02:35:00
10:55 PM,56.5,52.0,85,30.19,10.0,Calm,Calm,-,N/A,,Clear,0,2013-09-07 02:55:00
11:15 PM,54.5,51.3,89,30.20,10.0,Calm,Calm,-,N/A,,Clear,0,2013-09-07 03:15:00
11:35 PM,54.9,51.6,89,30.20,10.0,Calm,Calm,-,N/A,,Clear,0,2013-09-07 03:35:00
11:55 PM,55.4,51.8,88,30.20,10.0,Calm,Calm,-,N/A,,Clear,0,2013-09-07 03:55:00